KB4RFE Weather Reports


time (UTC)temp
F
wind
direction
speed
knots
gust
knots
rain 1hr
in
rain 24hr
in
rain mn
in
humidity
%
barometer
mb
20260509200134 77 236 4.3 7.8 0.00 0.00 0.00 78 1014.2
20260509195630 76 222 3.5 7.8 0.00 0.00 0.00 79 1014.3
20260509195125 76 243 3.5 8.7 0.00 0.00 0.00 78 1014.2
20260509194624 76 205 3.5 7.0 0.00 0.00 0.00 79 1014.1
20260509194122 76 233 4.3 5.2 0.00 0.00 0.00 80 1014.1
20260509193618 76 245 1.7 10.4 0.00 0.00 0.00 80 1014.1
20260509193114 76 231 7.8 8.7 0.00 0.00 0.00 79 1014.6
20260509192611 76 250 2.6 5.2 0.00 0.00 0.00 80 1014.7
20260509192105 76 229 6.1 7.8 0.00 0.00 0.00 79 1014.7
20260509191600 76 230 5.2 7.0 0.00 0.00 0.00 79 1014.6
20260509191057 76 197 5.2 10.4 0.00 0.00 0.00 79 1014.7
20260509190553 76 245 5.2 6.1 0.00 0.00 0.00 79 1014.7
20260509190051 76 262 1.7 6.1 0.00 0.00 0.00 79 1014.8
20260509185549 77 232 7.0 7.8 0.00 0.00 0.00 77 1014.7
20260509185044 77 227 2.6 7.8 0.00 0.00 0.00 77 1014.7
20260509184543 77 240 3.5 7.0 0.00 0.00 0.00 77 1014.8
20260509184039 76 231 5.2 7.0 0.00 0.00 0.00 77 1014.6
20260509183534 77 235 6.1 9.6 0.00 0.00 0.00 76 1014.7
20260509183031 77 239 3.5 5.2 0.00 0.00 0.00 74 1014.8
20260509182527 77 216 5.2 7.0 0.00 0.00 0.00 74 1014.6
20260509182024 77 214 7.0 9.6 0.00 0.00 0.00 74 1014.6
20260509181522 77 249 1.7 7.0 0.00 0.00 0.00 77 1014.8
20260509181019 77 228 6.1 9.6 0.00 0.00 0.00 77 1014.7
20260509180514 77 215 7.8 9.6 0.00 0.00 0.00 77 1014.9
20260509180013 76 234 4.3 5.2 0.00 0.00 0.00 78 1014.8
20260509175508 76 257 3.5 7.8 0.00 0.00 0.00 80 1015.0
20260509175005 76 220 6.1 7.8 0.00 0.00 0.00 79 1015.0
20260509174502 76 242 3.5 7.8 0.00 0.00 0.00 78 1014.9
20260509174002 76 220 7.0 7.8 0.00 0.00 0.00 78 1015.1
20260509173457 76 224 7.0 8.7 0.00 0.00 0.00 76 1014.9
20260509172953 76 229 7.0 7.8 0.00 0.00 0.00 78 1015.2
20260509172450 76 217 5.2 7.8 0.00 0.00 0.00 79 1015.3
20260509171946 76 213 7.0 9.6 0.00 0.00 0.00 80 1015.5
20260509171442 76 275 2.6 9.6 0.00 0.00 0.00 80 1015.3
20260509170939 76 217 3.5 4.3 0.00 0.00 0.00 80 1015.5
20260509170434 75 204 5.2 7.8 0.00 0.00 0.00 80 1015.5
20260509165930 75 237 5.2 8.7 0.00 0.00 0.00 81 1015.5
20260509165424 75 245 2.6 5.2 0.00 0.00 0.00 84 1015.7
20260509164920 74 221 4.3 6.1 0.00 0.00 0.00 84 1015.8
20260509164416 74 238 5.2 11.3 0.00 0.00 0.00 84 1016.0
20260509163912 74 221 4.3 7.0 0.00 0.00 0.00 84 1016.0
20260509163410 74 277 0.9 5.2 0.00 0.00 0.00 84 1016.1
20260509162909 75 219 5.2 5.2 0.00 0.00 0.00 84 1015.8
20260509162407 75 258 2.6 7.0 0.00 0.00 0.00 83 1015.8
20260509161903 75 240 2.6 4.3 0.00 0.00 0.00 84 1015.7
20260509161400 75 220 3.5 3.5 0.00 0.00 0.00 84 1015.6
20260509160855 75 244 2.6 6.1 0.00 0.00 0.00 83 1015.8
20260509160351 75 292 1.7 7.8 0.00 0.00 0.00 82 1015.8
20260509155846 75 242 5.2 7.8 0.00 0.00 0.00 82 1015.6
20260509155343 75 230 2.6 6.1 0.00 0.00 0.00 83 1015.6
20260509154839 75 228 3.5 7.0 0.00 0.00 0.00 84 1015.6
20260509154336 75 207 3.5 4.3 0.00 0.00 0.00 84 1015.6
20260509153833 75 278 2.6 7.0 0.00 0.00 0.00 85 1015.7
20260509153330 75 255 3.5 7.0 0.00 0.00 0.00 86 1016.0
20260509152827 74 221 4.3 5.2 0.00 0.00 0.00 85 1016.1
20260509152322 74 237 3.5 5.2 0.00 0.00 0.00 87 1016.2
20260509151821 74 205 5.2 7.8 0.00 0.00 0.00 86 1016.3
20260509151316 74 228 3.5 6.1 0.00 0.00 0.00 86 1016.2
20260509150815 74 251 2.6 3.5 0.00 0.00 0.00 86 1016.4
20260509150312 74 252 0.9 3.5 0.00 0.00 0.00 87 1016.5
20260509145809 74 271 0.9 2.6 0.00 0.00 0.00 86 1016.3
20260509145309 74 282 1.7 2.6 0.00 0.00 0.00 87 1016.4
20260509144806 74 263 1.7 1.7 0.00 0.00 0.00 86 1016.5
20260509144303 74 268 0.9 2.6 0.00 0.00 0.00 86 1016.5
20260509143800 74 278 0.9 1.7 0.00 0.00 0.00 86 1016.3
20260509143257 73 278 0.9 1.7 0.00 0.00 0.00 86 1016.4
20260509142753 73 356 0.9 1.7 0.00 0.00 0.00 86 1016.1
20260509142249 73 268 0.9 1.7 0.00 0.00 0.00 86 1016.0
20260509141745 73 298 0.0 1.7 0.00 0.00 0.00 86 1015.9
20260509141242 73 217 1.7 2.6 0.00 0.00 0.00 85 1016.1
20260509140739 73 249 1.7 2.6 0.00 0.00 0.00 86 1016.0
20260509140236 73 312 1.7 1.7 0.00 0.00 0.00 86 1016.0
20260509135733 73 203 1.7 1.7 0.00 0.00 0.00 85 1015.9
20260509135232 73 216 1.7 2.6 0.00 0.00 0.00 85 1015.8
20260509134728 73 213 0.9 1.7 0.00 0.00 0.00 85 1015.7
20260509134226 73 282 1.7 1.7 0.00 0.00 0.00 84 1016.0
20260509133723 73 291 0.0 1.7 0.00 0.00 0.00 84 1015.9
20260509133219 73 300 1.7 1.7 0.00 0.00 0.00 84 1015.9
20260509132718 73 349 0.9 1.7 0.00 0.00 0.00 84 1016.1
20260509132216 73 309 0.9 1.7 0.00 0.00 0.00 84 1016.2
20260509131712 73 350 1.7 1.7 0.00 0.00 0.00 84 1016.2
20260509131209 72 327 1.7 2.6 0.00 0.00 0.00 84 1016.1
20260509130705 72 244 0.0 1.7 0.00 0.00 0.00 84 1016.4
20260509130201 72 336 1.7 1.7 0.00 0.00 0.00 84 1016.3
20260509125658 72 340 1.7 1.7 0.00 0.00 0.00 85 1016.2
20260509125154 72 343 0.9 1.7 0.00 0.00 0.00 85 1016.3
20260509124651 71 19 1.7 1.7 0.00 0.00 0.00 85 1016.1
20260509124148 71 344 0.9 1.7 0.00 0.00 0.00 85 1016.2
20260509123646 71 339 1.7 1.7 0.00 0.00 0.00 86 1016.3
20260509123143 71 335 1.7 2.6 0.00 0.00 0.00 87 1016.4
20260509122638 70 342 1.7 2.6 0.00 0.00 0.00 88 1016.2
20260509122136 70 344 3.5 3.5 0.00 0.00 0.00 88 1016.4
20260509121632 69 6 1.7 3.5 0.00 0.00 0.00 89 1016.3
20260509121130 69 341 2.6 3.5 0.00 0.00 0.00 90 1016.3
20260509120628 69 44 3.5 3.5 0.00 0.00 0.00 93 1016.1
20260509120126 68 339 1.7 3.5 0.00 0.00 0.00 93 1016.2
20260509115623 67 31 1.7 2.6 0.00 0.00 0.00 94 1016.1
20260509115121 67 7 1.7 2.6 0.00 0.00 0.00 94 1016.0
20260509114618 66 350 1.7 1.7 0.00 0.00 0.00 94 1015.8
20260509114117 66 352 1.7 2.6 0.00 0.00 0.00 95 1015.9
20260509113615 66 340 1.7 1.7 0.00 0.00 0.00 95 1015.8
20260509113112 66 343 1.7 1.7 0.00 0.00 0.00 95 1015.9
20260509112608 66 0 0.0 1.7 0.00 0.00 0.00 95 1015.8
20260509112106 66 348 1.7 1.7 0.00 0.00 0.00 95 1015.9
20260509111603 65 1 0.9 1.7 0.00 0.00 0.00 95 1015.8
20260509111100 65 8 1.7 2.6 0.00 0.00 0.00 95 1015.8
20260509110557 65 358 1.7 2.6 0.00 0.00 0.00 95 1015.8
20260509110054 65 1 1.7 2.6 0.00 0.00 0.00 95 1015.6
20260509105552 65 15 1.7 1.7 0.00 0.00 0.00 95 1015.7
20260509105049 65 341 1.7 2.6 0.00 0.00 0.00 95 1015.7
20260509104546 65 343 1.7 2.6 0.00 0.00 0.00 95 1015.5
20260509104043 65 4 1.7 1.7 0.00 0.00 0.00 95 1015.4
20260509103541 65 3 1.7 2.6 0.00 0.00 0.00 94 1015.3
20260509103039 65 348 1.7 1.7 0.00 0.00 0.00 94 1015.3
20260509102536 65 9 1.7 2.6 0.00 0.00 0.00 94 1015.4
20260509102033 65 17 1.7 1.7 0.00 0.00 0.00 94 1015.4
20260509101529 65 336 1.7 1.7 0.00 0.00 0.00 94 1015.2
20260509101026 65 349 1.7 1.7 0.00 0.00 0.00 94 1015.1
20260509100523 65 350 1.7 1.7 0.00 0.00 0.00 94 1015.0
20260509100020 65 3 1.7 1.7 0.00 0.00 0.00 94 1015.3
20260509095517 65 325 1.7 1.7 0.00 0.00 0.00 94 1015.2
20260509095014 65 350 1.7 2.6 0.00 0.00 0.00 94 1015.2
20260509094510 65 358 2.6 2.6 0.00 0.00 0.00 94 1015.1
20260509094008 65 8 1.7 1.7 0.00 0.00 0.00 93 1015.3
20260509093506 65 358 1.7 1.7 0.00 0.00 0.00 93 1015.2
20260509093003 65 3 0.9 1.7 0.00 0.00 0.00 93 1015.4
20260509092500 66 345 0.9 2.6 0.00 0.00 0.00 93 1015.3
20260509091959 66 353 1.7 1.7 0.00 0.00 0.00 93 1015.5
20260509091456 66 1 1.7 1.7 0.00 0.00 0.00 93 1015.5
20260509090953 66 335 1.7 2.6 0.00 0.00 0.00 93 1015.5
20260509090450 66 343 1.7 1.7 0.00 0.00 0.00 92 1015.4
20260509085948 66 321 0.9 1.7 0.00 0.00 0.00 92 1015.5
20260509085444 66 338 1.7 1.7 0.00 0.00 0.00 92 1015.5
20260509084941 66 341 1.7 1.7 0.00 0.00 0.00 92 1015.4
20260509084438 66 339 0.9 0.9 0.00 0.00 0.00 92 1015.4
20260509083935 66 337 0.0 1.7 0.00 0.00 0.00 92 1015.4
20260509083432 66 348 1.7 2.6 0.00 0.00 0.00 92 1015.9
20260509082929 66 4 1.7 2.6 0.00 0.00 0.00 92 1015.7
20260509082426 66 353 2.6 2.6 0.00 0.00 0.00 91 1015.8
20260509081923 66 355 2.6 2.6 0.00 0.00 0.00 91 1015.6
20260509081420 66 354 1.7 1.7 0.00 0.00 0.00 91 1015.6
20260509080918 66 358 0.9 2.6 0.00 0.00 0.00 91 1015.8
20260509080415 66 351 1.7 1.7 0.00 0.00 0.00 90 1015.6
20260509075914 66 330 0.9 1.7 0.00 0.00 0.00 90 1015.9
20260509075410 67 336 1.7 2.6 0.00 0.00 0.00 89 1016.1
20260509074908 67 0 1.7 1.7 0.00 0.00 0.00 89 1016.3
20260509074405 67 339 0.9 1.7 0.00 0.00 0.00 88 1016.0
20260509073901 68 19 1.7 2.6 0.00 0.00 0.00 88 1016.1
20260509073358 68 13 1.7 4.3 0.00 0.00 0.00 87 1015.5
20260509072854 69 339 1.7 2.6 0.00 0.00 0.00 87 1015.4
20260509072351 69 318 0.9 0.9 0.00 0.00 0.00 88 1015.3
20260509071848 68 178 0.9 1.7 0.00 0.00 0.00 89 1015.4
20260509071345 68 261 0.0 1.7 0.00 0.00 0.00 88 1015.5
20260509070842 68 337 1.7 1.7 0.00 0.00 0.00 87 1015.8
20260509070338 68 352 1.7 1.7 0.00 0.00 0.00 87 1015.8
20260509065835 68 296 0.0 1.7 0.00 0.00 0.00 88 1016.0
20260509065331 68 315 0.9 2.6 0.00 0.00 0.00 86 1015.6
20260509064827 68 356 0.9 1.7 0.00 0.00 0.00 86 1015.9
20260509064325 69 340 0.9 1.7 0.00 0.00 0.00 85 1016.6
20260509063822 69 355 1.7 2.6 0.00 0.00 0.00 85 1016.9
20260509063318 69 337 0.9 2.6 0.00 0.00 0.00 84 1016.4
20260509062816 69 201 2.6 3.5 0.00 0.00 0.00 85 1016.4
20260509062313 69 207 1.7 2.6 0.00 0.00 0.00 85 1016.0
20260509061810 69 222 2.6 3.5 0.00 0.00 0.00 83 1016.3
20260509061308 69 197 3.5 5.2 0.00 0.00 0.00 83 1016.4
20260509060804 69 201 0.9 3.5 0.00 0.00 0.00 82 1016.8
20260509060301 69 194 2.6 3.5 0.00 0.00 0.00 82 1016.9
20260509055757 69 216 1.7 3.5 0.00 0.00 0.00 82 1016.8
20260509055253 69 201 3.5 3.5 0.00 0.00 0.00 85 1016.8
20260509054749 69 215 3.5 5.2 0.00 0.00 0.00 85 1016.6
20260509054246 69 203 4.3 6.1 0.00 0.00 0.00 85 1016.4
20260509053745 69 195 3.5 4.3 0.00 0.00 0.00 85 1016.6
20260509053241 69 180 1.7 2.6 0.00 0.00 0.00 84 1016.7
20260509052739 69 192 3.5 5.2 0.00 0.00 0.00 84 1017.0
20260509052237 69 265 0.9 1.7 0.00 0.00 0.00 84 1017.5
20260509051734 69 243 0.0 2.6 0.00 0.00 0.00 83 1017.8
20260509051232 68 329 1.7 1.7 0.00 0.00 0.00 83 1017.8
20260509050729 68 329 0.9 1.7 0.00 0.00 0.00 83 1017.9
20260509050225 68 332 1.7 1.7 0.00 0.00 0.00 82 1018.0
20260509045722 69 343 1.7 1.7 0.00 0.00 0.00 81 1017.9
20260509045219 69 337 1.7 1.7 0.00 0.00 0.00 81 1018.1
20260509044717 69 326 0.9 1.7 0.00 0.00 0.00 81 1018.1
20260509044214 69 213 2.6 3.5 0.00 0.00 0.00 81 1017.8
20260509043710 69 227 0.9 1.7 0.00 0.00 0.00 80 1017.4
20260509043206 69 223 1.7 1.7 0.00 0.00 0.00 80 1017.5
20260509042703 69 181 0.9 2.6 0.00 0.00 0.00 81 1017.6
20260509042159 69 235 0.9 1.7 0.00 0.00 0.00 80 1018.1
20260509041655 69 255 0.0 1.7 0.00 0.00 0.00 80 1018.3
20260509041153 69 326 0.0 0.9 0.00 0.00 0.00 80 1018.3
20260509040651 69 213 2.6 3.5 0.00 0.00 0.00 80 1018.6
20260509040148 68 208 2.6 4.3 0.00 0.00 0.00 81 1018.6
20260509035645 68 237 1.7 1.7 0.00 0.00 0.00 81 1018.7
20260509035141 68 190 0.9 2.6 0.00 0.00 0.00 80 1018.6
20260509034639 68 230 1.7 2.6 0.00 0.00 0.00 81 1018.6
20260509034136 68 199 1.7 1.7 0.00 0.00 0.00 81 1018.7
20260509033633 68 322 0.9 1.7 0.00 0.00 0.00 80 1018.5
20260509033130 68 292 0.0 0.9 0.00 0.00 0.00 80 1018.6
20260509032627 68 234 1.7 2.6 0.00 0.00 0.00 81 1018.7
20260509032124 68 303 1.7 1.7 0.00 0.00 0.00 81 1018.7
20260509031622 68 333 0.9 1.7 0.00 0.00 0.00 81 1018.8
20260509031119 68 318 0.0 1.7 0.00 0.00 0.00 81 1018.6
20260509030617 68 237 0.9 1.7 0.00 0.00 0.00 80 1018.9
20260509030114 68 243 0.9 2.6 0.00 0.00 0.00 82 1019.0
20260509025610 67 221 1.7 1.7 0.00 0.00 0.00 82 1018.8
20260509025106 67 1 0.0 0.9 0.00 0.00 0.00 83 1018.6
20260509024602 67 348 0.9 1.7 0.00 0.00 0.00 82 1018.6
20260509024058 67 323 1.7 1.7 0.00 0.00 0.00 83 1018.4
20260509023556 67 328 0.9 0.9 0.00 0.00 0.00 82 1018.5
20260509023053 67 315 0.9 1.7 0.00 0.00 0.00 82 1018.5
20260509022549 67 344 0.9 1.7 0.00 0.00 0.00 82 1018.8
20260509022047 67 321 0.0 0.9 0.00 0.00 0.00 81 1018.5
20260509021543 67 211 0.9 1.7 0.00 0.00 0.00 81 1018.5
20260509021041 67 251 1.7 1.7 0.00 0.00 0.00 83 1018.5
20260509020539 67 316 0.0 0.9 0.00 0.00 0.00 82 1018.5
20260509020035 66 341 0.0 0.9 0.00 0.00 0.00 82 1018.5
20260509015535 66 337 0.9 1.7 0.00 0.00 0.00 82 1018.6
20260509015031 66 322 0.9 1.7 0.00 0.00 0.00 82 1018.4
20260509014528 66 315 0.0 0.9 0.00 0.00 0.00 82 1018.4
20260509014024 66 316 0.9 0.9 0.00 0.00 0.00 82 1018.4
20260509013521 66 321 0.0 1.7 0.00 0.00 0.00 82 1018.1
20260509013016 66 320 0.0 1.7 0.00 0.00 0.00 81 1018.4
20260509012514 67 328 0.0 0.9 0.00 0.00 0.00 81 1018.3
20260509012010 66 319 0.0 0.9 0.00 0.00 0.00 81 1018.3
20260509011508 66 224 0.0 1.7 0.00 0.00 0.00 81 1018.2
20260509011005 66 207 1.7 1.7 0.00 0.00 0.00 81 1018.3
20260509010503 66 289 0.0 0.9 0.00 0.00 0.00 82 1018.2
20260509005959 66 257 0.0 0.9 0.00 0.00 0.00 81 1018.3
20260509005458 66 228 0.9 2.6 0.00 0.00 0.00 81 1018.2
20260509004957 66 228 0.0 1.7 0.00 0.00 0.00 81 1018.1
20260509004455 66 324 0.9 0.9 0.00 0.00 0.00 79 1017.8
20260509003952 66 247 0.0 0.9 0.00 0.00 0.00 82 1018.0
20260509003450 66 45 0.0 1.7 0.00 0.00 0.00 81 1017.8
20260509002947 66 323 1.7 1.7 0.00 0.00 0.00 81 1017.8
20260509002445 66 328 0.0 1.7 0.00 0.00 0.00 80 1017.8
20260509001942 66 338 0.9 1.7 0.00 0.00 0.00 81 1017.9
20260509001438 66 211 0.0 0.9 0.00 0.00 0.00 81 1017.9
20260509000935 66 221 0.0 1.7 0.00 0.00 0.00 80 1018.0
20260509000433 66 309 0.0 1.7 0.00 0.00 0.00 80 1017.8
20260508235928 66 350 1.7 1.7 0.00 0.00 0.00 79 1017.8
20260508235427 66 338 0.9 0.9 0.00 0.00 0.00 79 1017.8
20260508234923 66 341 1.7 1.7 0.00 0.00 0.00 79 1017.7
20260508234420 66 0 0.9 1.7 0.00 0.00 0.00 78 1017.8
20260508233918 66 314 2.6 3.5 0.00 0.00 0.00 78 1017.5
20260508233417 66 359 0.9 1.7 0.00 0.00 0.00 78 1017.8
20260508232913 66 328 0.0 2.6 0.00 0.00 0.00 79 1017.8
20260508232410 66 27 0.0 0.9 0.00 0.00 0.00 79 1017.7
20260508231908 66 312 0.0 0.0 0.00 0.00 0.00 79 1017.6
20260508231404 66 239 0.0 2.6 0.00 0.00 0.00 79 1017.8
20260508230901 67 292 0.0 2.6 0.00 0.00 0.00 78 1017.8
20260508230358 67 341 0.9 1.7 0.00 0.00 0.00 77 1017.7
20260508225855 67 305 0.0 1.7 0.00 0.00 0.00 77 1017.7
20260508225351 67 347 0.9 1.7 0.00 0.00 0.00 77 1017.8
20260508224850 67 332 1.7 2.6 0.00 0.00 0.00 77 1017.5
20260508224347 67 317 1.7 2.6 0.00 0.00 0.00 77 1017.7
20260508223844 67 302 0.9 0.9 0.00 0.00 0.00 77 1018.0
20260508223341 67 326 0.0 1.7 0.00 0.00 0.00 78 1017.5
20260508222839 67 334 1.7 1.7 0.00 0.00 0.00 77 1017.7
20260508222336 67 14 0.9 1.7 0.00 0.00 0.00 76 1017.9
20260508221832 67 312 0.9 1.7 0.00 0.00 0.00 76 1017.8
20260508221328 67 317 0.0 1.7 0.00 0.00 0.00 76 1017.9
20260508220825 68 309 1.7 1.7 0.00 0.00 0.00 75 1017.7
20260508220321 68 260 0.0 2.6 0.00 0.00 0.00 76 1017.8
20260508215818 68 311 0.0 1.7 0.00 0.00 0.00 76 1017.8
20260508215314 68 351 0.0 1.7 0.00 0.00 0.00 74 1017.8
20260508214812 68 331 0.0 1.7 0.00 0.00 0.00 74 1017.8
20260508214309 68 232 0.0 1.7 0.00 0.00 0.00 75 1017.8
20260508213805 68 108 0.0 2.6 0.00 0.00 0.00 74 1017.9
20260508213302 69 330 0.0 1.7 0.00 0.00 0.00 73 1017.9
20260508212758 69 342 0.0 1.7 0.00 0.00 0.00 74 1018.1
20260508212254 68 277 0.0 1.7 0.00 0.00 0.00 75 1018.1
20260508211750 68 323 0.0 1.7 0.00 0.00 0.00 74 1018.0
20260508211246 68 315 0.0 1.7 0.00 0.00 0.00 73 1017.8
20260508210744 68 322 0.0 0.9 0.00 0.00 0.00 76 1017.8
20260508210241 68 148 0.0 3.5 0.00 0.00 0.00 75 1017.7
20260508205737 68 189 0.9 1.7 0.00 0.00 0.00 73 1017.7
20260508205234 68 322 1.7 2.6 0.00 0.00 0.00 73 1018.1
20260508204730 68 139 0.9 1.7 0.00 0.00 0.00 74 1018.1
20260508204227 68 189 0.0 1.7 0.00 0.00 0.00 73 1017.7
20260508203723 68 202 0.9 1.7 0.00 0.00 0.00 73 1017.6
20260508203219 69 186 0.9 2.6 0.00 0.00 0.00 71 1017.8
20260508202716 69 335 0.0 1.7 0.00 0.00 0.00 72 1017.9
20260508202213 69 27 0.0 0.9 0.00 0.00 0.00 74 1018.0
20260508201710 69 206 1.7 1.7 0.00 0.00 0.00 71 1018.1
20260508201206 69 161 1.7 3.5 0.00 0.00 0.00 71 1018.4
20260508200703 69 27 0.0 1.7 0.00 0.00 0.00 70 1018.5